Location: Newark
(50.0306°N, 2.3272°E)
Time: 16:46:01
(UTC+00:00)

A-11 Canister half - Pass Details

Date: 15 December 2019
Orbit: 1525 x 1684 km, 47.3° (Epoch: 20 January)

Event Time Altitude Azimuth Distance (km) Brightness Sun altitude
Rises 05:15:11 0° 234° (SW) 4,897 - -22.4°
Reaches altitude 10° 05:18:22 10° 231° (SW) 3,923 - -21.9°
Exits shadow 05:18:37 11° 231° (SW) 3,850 10.7 -21.8°
Maximum altitude 05:28:12 60° 155° (SSE) 1,890 9.6 -20.3°
Drops below altitude 10° 05:38:05 10° 80° (E) 3,938 12.1 -18.8°
Sets 05:41:16 0° 77° (ENE) 4,916 12.8 -18.3°
